Location: Zagreb
(45.8000°N, 16.0000°E)
Time: 17:48:22
(UTC+01:00)

Vanguard 2 Rocket - Pass Details

Date: 18 December 2025
Orbit: 553 x 3287 km, 32.9° (Epoch: 17 January)

Event Time Altitude Azimuth Distance (km) Brightness Sun altitude
Rises 05:55:08 0° 217° (SW) 6,742 11.1 -16.1°
Reaches altitude 10° 05:59:56 10° 210° (SSW) 5,960 10.9 -15.3°
Maximum altitude 06:16:35 37° 152° (SSE) 4,352 10.8 -12.6°
Drops below altitude 10° 06:32:08 10° 94° (E) 5,609 12.2 -10.1°
Sets 06:36:24 0° 87° (E) 6,325 12.4 -9.4°
